COMSATBW-2

Last updated on Mon Oct 14 2024 00:02:38 GMT+0000 (Coordinated Universal Time)

1 36582U 10021B 24287.33799545 .00000087 00000+0 00000+0 0 9999 2 36582 0.0314 103.6935 0002818 115.1047 298.5057 1.00268804 52821
UTC large
Height (km)
Speed (km/s)
/
Latitude / Longitude
Inclination (degrees)
Orbital Period (minutes)
Azimuth
Elevation
Range (km)
Doppler Factor

Next 0 passes for location: London (51.5072 / 0.1276)

Sorry there are no passes over London.